N6YV Weather Reports


Display with metric or nautical units.
time (UTC)temp
F
wind
direction
speed
MPH
gust
MPH
rain 1hr
in
rain 24hr
in
rain mn
in
humidity
%
barometer
mb
20260502163042 60 15 3.0 0.0 0.00 0.00 0.00 37 1005.5
20260502161539 59 310 2.0 0.0 0.00 0.00 0.00 39 1005.5
20260502151531 54 242 1.0 0.0 0.00 0.00 0.00 43 1005.9
20260502123018 51 254 5.0 0.0 0.00 0.00 0.00 39 1005.1
20260502121515 51 254 4.0 0.0 0.00 0.00 0.00 37 1005.1
20260502114512 53 269 5.0 0.0 0.00 0.00 0.00 33 1005.2
20260502113010 53 258 4.0 0.0 0.00 0.00 0.00 32 1005.3
20260502111510 52 243 2.0 0.0 0.00 0.00 0.00 33 1005.4
20260502110009 52 251 5.0 0.0 0.00 0.00 0.00 35 1005.4
20260502104507 51 288 2.0 0.0 0.00 0.00 0.00 35 1005.4
20260502103003 52 255 2.0 0.0 0.00 0.00 0.00 33 1005.2
20260502101503 52 253 1.0 0.0 0.00 0.00 0.00 30 1005.3
20260502100104 54 252 2.0 0.0 0.00 0.00 0.00 28 1005.2
20260502090107 55 249 5.0 0.0 0.00 0.00 0.00 24 1005.8
20260502071534 57 258 5.0 0.0 0.00 0.00 0.00 23 1006.5
20260502070050 56 254 4.0 0.0 0.00 0.00 0.00 25 1006.5
20260502064532 57 251 4.0 0.0 0.00 0.00 0.00 25 1006.4
20260502063036 58 246 4.0 0.0 0.00 0.00 0.00 25 1006.4
20260502061528 58 261 5.0 0.0 0.00 0.00 0.00 25 1006.4
20260502060028 58 252 6.0 0.0 0.00 0.00 0.00 26 1006.4
20260502054528 58 266 6.0 0.0 0.00 0.00 0.00 26 1006.5
20260502053027 58 245 6.0 0.0 0.00 0.00 0.00 24 1006.5
20260502051527 58 262 7.0 0.0 0.00 0.00 0.00 22 1006.6
20260502050027 59 254 4.0 0.0 0.00 0.00 0.00 21 1006.6
20260502044526 59 263 5.0 0.0 0.00 0.00 0.00 21 1006.6
20260502043026 59 245 5.0 0.0 0.00 0.00 0.00 21 1006.3
20260502041526 59 219 4.0 0.0 0.00 0.00 0.00 21 1006.3
20260502040027 60 272 5.0 0.0 0.00 0.00 0.00 21 1006.2
20260502034528 60 211 2.0 0.0 0.00 0.00 0.00 17 1005.9
20260502033024 61 211 1.0 0.0 0.00 0.00 0.00 17 1005.5
20260502031523 62 117 3.0 0.0 0.00 0.00 0.00 16 1005.4
20260502030024 64 112 2.0 0.0 0.00 0.00 0.00 15 1005.2
20260502024523 66 112 2.0 0.0 0.00 0.00 0.00 13 1005.2
20260502023022 67 121 4.0 0.0 0.00 0.00 0.00 13 1005.1
20260502021521 67 74 3.0 0.0 0.00 0.00 0.00 13 1005.1
20260502020021 68 24 5.0 0.0 0.00 0.00 0.00 13 1005.1
20260502014521 69 38 3.0 0.0 0.00 0.00 0.00 12 1005.1
20260502013019 70 61 2.0 0.0 0.00 0.00 0.00 13 1005.2
20260502011523 70 201 1.0 0.0 0.00 0.00 0.00 15 1005.2
20260502010018 70 200 2.0 0.0 0.00 0.00 0.00 15 1005.3
20260502004518 71 150 5.0 0.0 0.00 0.00 0.00 14 1005.4
20260502003016 73 243 4.0 0.0 0.00 0.00 0.00 14 1005.5
20260502001519 73 157 3.0 0.0 0.00 0.00 0.00 13 1005.5
20260502000014 73 60 2.0 0.0 0.00 0.00 0.00 12 1005.6
20260501234513 73 65 4.0 0.0 0.00 0.00 0.00 12 1005.7
20260501233018 74 161 3.0 0.0 0.00 0.00 0.00 12 1006.0
20260501231508 73 82 2.0 0.0 0.00 0.00 0.00 12 1006.2
20260501230006 72 78 3.0 0.0 0.00 0.00 0.00 11 1006.6
20260501224505 72 72 5.0 0.0 0.00 0.00 0.00 12 1006.8
20260501223002 72 90 4.0 0.0 0.00 0.00 0.00 11 1007.1
20260501221559 72 109 4.0 0.0 0.00 0.00 0.00 11 1007.5
20260501220137 71 101 5.0 0.0 0.00 0.00 0.00 11 1007.8
20260501214556 72 34 2.0 0.0 0.00 0.00 0.00 13 1007.9
20260501213100 71 111 3.0 0.0 0.00 0.00 0.00 12 1008.1
20260501211551 71 84 4.0 0.0 0.00 0.00 0.00 13 1008.2
20260501210104 70 30 3.0 0.0 0.00 0.00 0.00 14 1008.4
20260501204549 70 104 4.0 0.0 0.00 0.00 0.00 15 1008.7
20260501203044 70 144 5.0 0.0 0.00 0.00 0.00 14 1008.7
20260501201544 69 144 5.0 0.0 0.00 0.00 0.00 14 1008.9
20260501200041 69 86 5.0 0.0 0.00 0.00 0.00 16 1009.0
20260501194540 68 216 4.0 0.0 0.00 0.00 0.00 18 1009.1
20260501193046 68 117 6.0 0.0 0.00 0.00 0.00 17 1009.3
20260501191537 68 175 4.0 0.0 0.00 0.00 0.00 18 1009.4
20260501190039 68 119 6.0 0.0 0.00 0.00 0.00 18 1009.6
20260501184533 67 94 4.0 0.0 0.00 0.00 0.00 19 1009.9
20260501183040 66 126 3.0 0.0 0.00 0.00 0.00 21 1010.1
20260501181552 67 80 5.0 0.0 0.00 0.00 0.00 20 1010.3
20260501180029 66 51 3.0 0.0 0.00 0.00 0.00 22 1010.4